Regional Weather Roundup
Issued by NWS Raleigh/Durham, NC

Home | Current Version | Previous Version | Text Only | Print | Product List | Glossary On
Versions: 1 2 3 4 5 6 7 8 9 10 11 12 13 14 15 16 17 18 19 20 21 22 23 24 25 26 27 28 29 30 31 32 33 34 35 36 37 38 39 40 41 42 43 44 45 46 47 48 49 50
000
ASUS42 KRAH 291010
RWRRAH
NORTH CAROLINA WEATHER ROUNDUP
NATIONAL WEATHER SERVICE RALEIGH NC
500 AM EST MON DEC 29 2014

NOTE: "FAIR" INDICATES FEW OR NO CLOUDS BELOW 12,000 FEET WITH NO
SIGNIFICANT WEATHER AND/OR OBSTRUCTIONS TO VISIBILITY.

NCZ001-053-055-056-065-067-291100-
WESTERN NORTH CAROLINA

CITY           SKY/WX    TMP DP  RH WIND       PRES   REMARKS
ASHEVILLE      RAIN      50  48  93 N3        30.04F
JEFFERSON      LGT RAIN  45  45  99 CALM      30.04F
MORGANTON      HVY RAIN  51  51 100 CALM      30.07F VSB 1/2
HICKORY        LGT RAIN  52  51  97 NE3       30.02F VSB 1
RUTHERFORDTON  LGT RAIN  53  53 100 CALM      30.05S
MOUNT AIRY     HVY RAIN  50  48  93 CALM      30.08R
BOONE          LGT RAIN  46  46 100 CALM      30.03F
$$

NCZ021-022-025-041-071-084-088-291100-
CENTRAL NORTH CAROLINA

CITY           SKY/WX    TMP DP  RH WIND       PRES   REMARKS
CHARLOTTE      RAIN      54  52  93 NE7       30.04F
GREENSBORO     LGT RAIN  50  50 100 NE3       30.04S
WINSTON-SALEM  LGT RAIN  50  48  93 NE7       30.06S
RALEIGH-DURHAM LGT RAIN  53  50  89 NE9       30.05F FOG
FORT BRAGG     LGT RAIN  57  56  98 CALM      30.04R
FAYETTEVILLE   LGT RAIN  58  57  97 N5        30.02S FOG
BURLINGTON     LGT RAIN  51  49  92 NE3       30.05S
LAURINBURG     LGT RAIN  58  58 100 N7        30.03R FOG
$$

NCZ011-015-027-028-043-044-047-080-103-291100-
NORTHEASTERN NORTH CAROLINA

CITY           SKY/WX    TMP DP  RH WIND       PRES   REMARKS
ROCKY MT-WILSO LGT RAIN  54  52  93 NE8       30.05S
GREENVILLE     RAIN      55  55 100 N6        30.06S
WASHINGTON     CLOUDY    57  57  98 N6        30.04F
ELIZABETH CITY CLOUDY    59  54  83 N6        30.05S
MANTEO         DRIZZLE   55  55 100 N3        30.05S
CAPE HATTERAS  CLOUDY    57  57 100 N3        30.04S FOG
$$

NCZ078-087-090-091-093-098-101-291100-
SOUTHEASTERN NORTH CAROLINA

CITY           SKY/WX    TMP DP  RH WIND       PRES   REMARKS
LUMBERTON      CLOUDY    60  58  92 CALM      30.01S FOG
GOLDSBORO      LGT RAIN  57  57 100 N9        30.03R
KINSTON        RAIN      59  58  99 N5        30.04S
KENANSVILLE    FOG       58  58  98 CALM      30.03S VSB 3/4
NEW BERN       FOG       61  58  90 CALM      30.04S VSB 3/4
CHERRY POINT   CLOUDY    60  57  89 NE3       30.04S
BEAUFORT       CLOUDY    59  58  96 NE3       30.03R
JACKSONVILLE   CLOUDY    59  58  96 CALM      30.02S
WILMINGTON     LGT RAIN  58  58 100 NW3       30.02R VSB 3/4
$$



USA.gov is the U.S. government's official web portal to all federal, state and local government web resources and services.